GW2455 Weather Reports


Display with metric or nautical units.
time (UTC)temp
F
wind
direction
speed
MPH
gust
MPH
rain 1hr
in
rain 24hr
in
rain mn
in
humidity
%
barometer
mb
20260510105758 58 34 19.0 36.0 0.00 0.17 0.17 77 1023.0
20260510105254 58 44 25.0 36.0 0.00 0.17 0.17 77 1022.8
20260510104755 59 48 22.0 31.0 0.00 0.17 0.17 77 1022.8
20260510104252 59 43 23.0 35.0 0.00 0.17 0.17 75 1022.8
20260510103749 59 40 23.0 35.0 0.00 0.17 0.17 75 1022.8
20260510103250 59 30 20.0 32.0 0.00 0.17 0.17 75 1022.8
20260510102749 59 44 17.0 32.0 0.00 0.17 0.17 76 1022.7
20260510102245 59 54 20.0 32.0 0.02 0.17 0.17 76 1022.7
20260510102115 59 82 14.0 24.0 0.02 0.17 0.17 76 1022.6
20260510101241 58 41 16.0 27.0 0.02 0.17 0.17 77 1022.6
20260510100739 58 30 18.0 27.0 0.02 0.17 0.17 78 1022.7
20260510100600 59 43 13.0 29.0 0.02 0.17 0.17 77 1022.6
20260510095843 59 30 19.0 33.0 0.02 0.15 0.17 77 1022.6
20260510094737 58 55 24.0 33.0 0.02 0.15 0.17 78 1022.5
20260510094236 58 38 18.0 31.0 0.02 0.15 0.17 81 1022.5
20260510093736 58 25 18.0 29.0 0.02 0.15 0.17 81 1022.5
20260510093232 58 61 19.0 29.0 0.02 0.15 0.17 80 1022.6
20260510092733 59 47 15.0 26.0 0.02 0.15 0.17 77 1022.6
20260510092548 60 47 16.0 24.0 0.00 0.15 0.15 74 1022.5
20260510091729 60 30 13.0 26.0 0.00 0.15 0.15 75 1022.5
20260510091541 59 40 14.0 26.0 0.00 0.15 0.15 75 1022.5
20260510090729 59 40 18.0 26.0 0.00 0.15 0.15 74 1022.4
20260510090228 59 44 14.0 23.0 0.00 0.15 0.15 75 1022.4
20260510085725 59 30 11.0 23.0 0.00 0.15 0.15 77 1022.4
20260510085540 59 40 15.0 24.0 0.00 0.15 0.15 76 1022.4
20260510084724 59 31 15.0 24.0 0.00 0.15 0.15 76 1022.3
20260510084549 59 31 11.0 27.0 0.00 0.15 0.15 76 1022.4
20260510083719 58 41 16.0 27.0 0.00 0.15 0.15 75 1022.4
20260510083220 58 38 19.0 26.0 0.00 0.15 0.15 75 1022.4
20260510082719 58 30 16.0 23.0 0.00 0.15 0.15 77 1022.3
20260510082532 58 46 10.0 18.0 0.00 0.15 0.15 78 1022.3
20260510081719 58 40 13.0 21.0 0.00 0.15 0.15 77 1022.3
20260510081217 58 40 16.0 23.0 0.00 0.15 0.15 77 1022.2
20260510080714 58 30 13.0 27.0 0.00 0.15 0.15 77 1022.2
20260510080211 58 47 15.0 27.0 0.00 0.15 0.15 77 1022.3
20260510075712 58 53 13.0 21.0 0.00 0.15 0.15 77 1022.2
20260510075207 58 38 16.0 22.0 0.00 0.15 0.15 78 1022.2
20260510074705 58 30 15.0 22.0 0.00 0.15 0.15 78 1022.1
20260510074205 57 27 15.0 26.0 0.01 0.15 0.15 77 1022.1
20260510073704 57 53 15.0 26.0 0.01 0.15 0.15 77 1022.0
20260510073205 57 37 14.0 26.0 0.01 0.15 0.15 79 1022.0
20260510072659 57 46 18.0 26.0 0.01 0.15 0.15 80 1021.9
20260510072200 56 0 14.0 21.0 0.01 0.15 0.15 80 1021.9
20260510072027 56 13 12.0 21.0 0.01 0.15 0.15 80 1021.9
20260510071515 56 354 12.0 21.0 0.01 0.15 0.15 81 1021.9
20260510070652 56 30 14.0 21.0 0.01 0.15 0.15 83 1021.8
20260510070148 56 13 14.0 21.0 0.01 0.15 0.15 84 1021.8
20260510065644 55 61 11.0 19.0 0.01 0.14 0.15 85 1021.8
20260510065143 55 54 10.0 20.0 0.01 0.14 0.15 84 1021.8
20260510064645 55 46 11.0 22.0 0.01 0.14 0.14 84 1021.9
20260510064140 56 46 13.0 22.0 0.00 0.14 0.14 83 1021.9
20260510063940 57 55 17.0 20.0 0.00 0.14 0.14 81 1021.8
20260510063136 57 37 15.0 21.0 0.00 0.14 0.14 80 1021.7
20260510062636 57 30 12.0 21.0 0.00 0.14 0.14 80 1021.7
20260510062134 57 30 15.0 22.0 0.00 0.14 0.14 80 1021.5
20260510061635 57 30 14.0 22.0 0.00 0.14 0.14 79 1021.4
20260510061143 57 54 12.0 20.0 0.00 0.14 0.14 78 1021.5
20260510061135 57 31 13.0 21.0 0.00 0.14 0.14 78 1021.5
20260510060000 57 21 11.0 22.0 0.00 0.14 0.14 77 1021.5
20260510055133 57 33 15.0 22.0 0.00 0.14 0.14 77 1021.4
20260510054635 57 47 13.0 21.0 0.00 0.14 0.14 77 1021.3
20260510054518 57 30 12.0 23.0 0.00 0.14 0.14 77 1021.3
20260510053634 57 43 16.0 23.0 0.00 0.14 0.14 76 1021.5
20260510053134 57 30 13.0 26.0 0.00 0.14 0.14 76 1021.5
20260510052635 57 34 15.0 26.0 0.00 0.14 0.14 77 1021.5
20260510052133 57 74 13.0 23.0 0.00 0.14 0.14 79 1021.3
20260510051631 57 30 14.0 23.0 0.00 0.14 0.14 78 1021.3
20260510051131 57 38 12.0 23.0 0.00 0.14 0.14 79 1021.3
20260510050740 57 55 14.0 20.0 0.00 0.14 0.14 78 1021.4
20260510045632 57 51 15.0 28.0 0.01 0.14 0.14 77 1021.3
20260510045132 57 40 20.0 28.0 0.01 0.14 0.14 78 1021.2
20260510044630 57 34 18.0 26.0 0.06 0.14 0.14 79 1021.2
20260510044130 57 44 17.0 27.0 0.06 0.14 0.14 79 1021.1
20260510043947 57 30 17.0 27.0 0.06 0.14 0.14 79 1021.2
20260510043123 57 46 17.0 23.0 0.06 0.14 0.14 80 1021.1
20260510042621 57 51 17.0 26.0 0.06 0.14 0.14 80 1021.3
20260510042116 57 30 16.0 26.0 0.06 0.14 0.14 80 1021.3
20260510041615 56 46 15.0 27.0 0.06 0.14 0.14 81 1021.2
20260510041109 56 44 19.0 27.0 0.06 0.14 0.14 82 1021.1
20260510040606 56 44 18.0 26.0 0.06 0.14 0.14 83 1021.3
20260510040418 55 41 16.0 26.0 0.06 0.14 0.14 83 1021.3
20260510035605 55 18 19.0 35.0 0.06 0.08 0.13 84 1021.4
20260510035104 56 10 19.0 35.0 0.05 0.08 0.12 84 1021.5
20260510034603 57 31 18.0 27.0 0.00 0.08 0.08 82 1021.2
20260510034104 57 37 19.0 28.0 0.00 0.08 0.08 82 1021.2
20260510033605 57 51 20.0 30.0 0.00 0.08 0.08 82 1021.1
20260510033105 57 34 19.0 32.0 0.00 0.08 0.08 82 1021.2
20260510032603 57 44 21.0 32.0 0.00 0.08 0.08 82 1021.1
20260510032104 57 25 14.0 23.0 0.04 0.08 0.08 81 1021.2
20260510031600 57 54 14.0 30.0 0.05 0.08 0.08 80 1021.0
20260510031101 57 50 22.0 30.0 0.06 0.08 0.08 80 1021.2
20260510030556 57 30 19.0 28.0 0.06 0.08 0.08 80 1021.2
20260510030055 57 30 18.0 32.0 0.06 0.08 0.08 80 1021.2
20260510025550 57 47 18.0 32.0 0.06 0.02 0.08 81 1021.1
20260510025050 57 36 18.0 28.0 0.06 0.02 0.08 82 1021.2
20260510024548 57 44 18.0 28.0 0.06 0.02 0.08 82 1021.1
20260510024047 57 41 20.0 28.0 0.06 0.02 0.08 82 1021.2
20260510023535 56 43 17.0 28.0 0.06 0.02 0.08 83 1021.3
20260510023034 56 48 18.0 28.0 0.06 0.02 0.08 84 1021.2
20260510022537 56 34 14.0 28.0 0.06 0.02 0.08 84 1021.2
20260510022036 56 51 13.0 19.0 0.01 0.02 0.03 83 1021.5
20260510021532 57 33 12.0 28.0 0.01 0.02 0.03 82 1021.6
20260510021401 58 50 20.0 28.0 0.00 0.02 0.02 81 1021.7
20260510020529 58 37 14.0 24.0 0.01 0.02 0.02 81 1021.4
20260510020022 58 47 17.0 24.0 0.01 0.02 0.02 81 1021.6
20260510015518 57 30 18.0 24.0 0.02 0.02 0.02 81 1021.5
20260510015018 57 24 15.0 26.0 0.02 0.02 0.02 80 1021.6
20260510014631 57 27 17.0 27.0 0.02 0.02 0.02 79 1021.7
20260510013519 57 31 14.0 23.0 0.02 0.02 0.02 82 1021.7
20260510013018 57 34 14.0 23.0 0.02 0.02 0.02 82 1021.5
20260510012842 57 30 17.0 23.0 0.02 0.02 0.02 83 1021.7
20260510012012 57 40 14.0 21.0 0.02 0.02 0.02 83 1021.8
20260510011513 57 30 12.0 23.0 0.02 0.02 0.02 82 1021.8
20260510011013 57 38 14.0 23.0 0.02 0.02 0.02 82 1021.9
20260510010512 57 30 14.0 24.0 0.02 0.02 0.02 82 1022.0
20260510010128 58 30 14.0 24.0 0.02 0.01 0.01 81 1022.0
20260510005008 58 53 11.0 19.0 0.00 0.00 0.00 81 1021.8
20260510004506 58 50 13.0 20.0 0.00 0.00 0.00 80 1021.9
20260510004009 58 30 15.0 22.0 0.00 0.00 0.00 80 1021.9
20260510003507 58 36 15.0 22.0 0.00 0.00 0.00 80 1022.0
20260510003003 57 31 14.0 19.0 0.00 0.00 0.00 80 1022.0
20260510002459 58 36 13.0 18.0 0.00 0.00 0.00 80 1021.9
20260510001952 58 33 13.0 23.0 0.00 0.00 0.00 79 1022.0
20260510001452 58 0 14.0 23.0 0.00 0.00 0.00 79 1021.9
20260510000954 58 30 13.0 23.0 0.00 0.00 0.00 79 1022.0
20260510000451 58 43 12.0 23.0 0.00 0.00 0.00 79 1021.9
20260509235949 58 30 14.0 22.0 0.00 0.00 0.00 79 1022.0
20260509235444 58 37 15.0 22.0 0.00 0.00 0.00 79 1022.0
20260509235239 58 356 13.0 21.0 0.00 0.00 0.00 80 1022.1
20260509234441 58 34 11.0 19.0 0.00 0.00 0.00 80 1022.1
20260509233934 58 30 13.0 18.0 0.00 0.00 0.00 80 1022.2
20260509233432 58 47 11.0 15.0 0.00 0.00 0.00 79 1022.2
20260509232933 58 34 9.0 21.0 0.00 0.00 0.00 79 1022.2
20260509232433 58 43 10.0 21.0 0.00 0.00 0.00 79 1022.2
20260509231934 58 353 16.0 30.0 0.00 0.00 0.00 79 1022.1
20260509231434 58 36 16.0 30.0 0.00 0.00 0.00 79 1022.1
20260509230933 58 43 12.0 23.0 0.00 0.00 0.00 79 1022.1
20260509230447 58 46 14.0 20.0 0.00 0.00 0.00 79 1022.1
20260509225932 58 34 13.0 24.0 0.00 0.00 0.00 78 1022.0
20260509225434 58 7 16.0 24.0 0.00 0.00 0.00 78 1022.0
20260509224935 58 71 10.0 20.0 0.00 0.00 0.00 78 1021.9
20260509224436 58 30 15.0 26.0 0.00 0.00 0.00 77 1022.0
20260509223932 58 30 14.0 26.0 0.00 0.00 0.00 76 1021.8
20260509223431 58 30 15.0 26.0 0.00 0.00 0.00 77 1021.8
20260509223251 58 37 19.0 26.0 0.00 0.00 0.00 76 1021.8
20260509222428 58 47 16.0 26.0 0.00 0.00 0.00 77 1021.6
20260509221927 58 30 12.0 20.0 0.00 0.00 0.00 78 1021.7
20260509221425 58 30 13.0 20.0 0.00 0.00 0.00 78 1021.6
20260509220923 58 51 8.0 20.0 0.00 0.00 0.00 79 1021.5
20260509220748 58 30 13.0 20.0 0.00 0.00 0.00 79 1021.6
20260509220234 58 57 9.0 19.0 0.00 0.00 0.00 78 1021.4
20260509215416 58 50 11.0 19.0 0.00 0.00 0.00 78 1021.4
20260509214914 58 30 13.0 17.0 0.00 0.00 0.00 78 1021.3
20260509214414 58 54 10.0 19.0 0.00 0.00 0.00 76 1021.2
20260509213916 58 38 13.0 20.0 0.00 0.00 0.00 76 1021.2
20260509213415 58 34 12.0 20.0 0.00 0.00 0.00 78 1021.1
20260509212913 58 37 9.0 16.0 0.00 0.00 0.00 79 1021.0
20260509212410 58 36 9.0 18.0 0.00 0.00 0.00 79 1020.9
20260509212219 58 46 12.0 18.0 0.00 0.00 0.00 79 1020.8
20260509211413 58 30 7.0 18.0 0.00 0.00 0.00 80 1020.9
20260509211006 58 54 10.0 18.0 0.00 0.00 0.00 80 1020.8
20260509205911 58 13 13.0 22.0 0.00 0.00 0.00 79 1020.7
20260509205407 58 30 12.0 22.0 0.00 0.00 0.00 79 1020.7
20260509205222 58 33 15.0 23.0 0.00 0.00 0.00 80 1020.8
20260509204407 58 24 15.0 24.0 0.00 0.00 0.00 80 1020.7
20260509203907 58 44 12.0 24.0 0.00 0.00 0.00 80 1020.6
20260509203404 58 30 14.0 22.0 0.00 0.00 0.00 80 1020.6
20260509201859 59 30 12.0 21.0 0.00 0.00 0.00 78 1020.6
20260509201351 59 38 11.0 20.0 0.00 0.00 0.00 77 1020.5
20260509200847 59 37 12.0 20.0 0.00 0.00 0.00 77 1020.4
20260509200346 59 50 10.0 19.0 0.00 0.00 0.00 78 1020.4
20260509200211 59 30 9.0 18.0 0.00 0.00 0.00 78 1020.3
20260509195714 59 33 13.0 26.0 0.00 0.00 0.00 77 1020.3
20260509194844 59 53 17.0 26.0 0.00 0.00 0.00 77 1020.4
20260509194339 59 30 9.0 19.0 0.00 0.00 0.00 76 1020.3
20260509193838 59 54 11.0 19.0 0.00 0.00 0.00 76 1020.2
20260509193334 59 43 11.0 16.0 0.00 0.00 0.00 76 1020.2
20260509192940 60 47 11.0 16.0 0.00 0.00 0.00 76 1020.2
20260509191828 60 37 9.0 17.0 0.00 0.00 0.00 75 1020.3
20260509191647 60 40 7.0 21.0 0.00 0.00 0.00 76 1020.4
20260509190829 60 33 15.0 21.0 0.00 0.00 0.00 76 1020.2
20260509190328 60 30 12.0 26.0 0.00 0.00 0.00 75 1020.3
20260509185925 60 25 14.0 26.0 0.00 0.00 0.00 75 1020.3
20260509184824 60 30 10.0 24.0 0.00 0.00 0.00 76 1020.1
20260509184323 60 30 12.0 24.0 0.00 0.00 0.00 76 1020.0
20260509183824 60 15 8.0 18.0 0.00 0.00 0.00 77 1020.0
20260509183319 60 46 11.0 20.0 0.00 0.00 0.00 76 1019.9
20260509183135 60 30 13.0 20.0 0.00 0.00 0.00 77 1019.8
20260509182317 60 10 11.0 20.0 0.00 0.00 0.00 76 1019.9
20260509181818 60 41 16.0 22.0 0.00 0.00 0.00 76 1019.9
20260509181315 60 30 14.0 22.0 0.00 0.00 0.00 75 1019.8
20260509180814 60 30 10.0 22.0 0.00 0.00 0.00 76 1019.7
20260509180634 60 40 13.0 19.0 0.00 0.00 0.00 76 1019.6
20260509175813 60 28 12.0 26.0 0.00 0.00 0.00 76 1019.5
20260509175313 60 46 20.0 26.0 0.00 0.00 0.00 76 1019.4
20260509174812 60 6 14.0 28.0 0.00 0.00 0.00 76 1019.5
20260509174310 60 17 15.0 28.0 0.00 0.00 0.00 75 1019.5
20260509173808 60 30 14.0 23.0 0.00 0.00 0.00 76 1019.4
20260509173306 60 31 14.0 23.0 0.00 0.00 0.00 76 1019.4
20260509172806 61 4 10.0 20.0 0.00 0.00 0.00 76 1019.4
20260509172307 61 14 11.0 29.0 0.00 0.00 0.00 76 1019.4
20260509171807 60 23 13.0 29.0 0.00 0.00 0.00 76 1019.3
20260509171636 60 47 14.0 28.0 0.00 0.00 0.00 76 1019.4
20260509170815 60 24 13.0 29.0 0.00 0.00 0.00 77 1019.4
20260509170304 60 30 19.0 29.0 0.00 0.00 0.00 76 1019.2
20260509165804 60 33 16.0 28.0 0.00 0.00 0.00 78 1019.2
20260509165621 60 7 17.0 28.0 0.00 0.00 0.00 76 1019.3
20260509164806 60 30 15.0 26.0 0.00 0.00 0.00 77 1019.2
20260509164304 60 30 16.0 30.0 0.00 0.00 0.00 77 1019.3
20260509163802 60 4 18.0 30.0 0.00 0.00 0.00 78 1019.2
20260509163300 60 11 21.0 30.0 0.00 0.00 0.00 80 1019.0
20260509162802 60 10 14.0 28.0 0.00 0.00 0.00 80 1019.2
20260509162257 60 30 19.0 28.0 0.00 0.00 0.00 78 1019.2
20260509161757 60 357 15.0 28.0 0.00 0.00 0.00 80 1019.1
20260509161257 60 20 19.0 28.0 0.00 0.00 0.00 79 1019.2
20260509160749 60 20 17.0 26.0 0.00 0.00 0.00 77 1019.3
20260509160248 61 3 13.0 29.0 0.00 0.00 0.00 78 1019.2
20260509155739 60 28 21.0 29.0 0.00 0.00 0.00 77 1019.4
20260509155239 60 354 9.0 29.0 0.00 0.00 0.00 79 1019.5
20260509154739 60 0 15.0 31.0 0.00 0.00 0.00 79 1019.5
20260509154235 60 24 17.0 31.0 0.00 0.00 0.00 78 1019.5
20260509153735 60 356 12.0 31.0 0.00 0.00 0.00 79 1019.4
20260509153541 60 0 20.0 31.0 0.00 0.00 0.00 78 1019.3
20260509152738 60 6 19.0 28.0 0.00 0.00 0.00 78 1019.4
20260509152235 60 36 14.0 29.0 0.00 0.00 0.00 79 1019.5
20260509151733 60 17 14.0 29.0 0.00 0.00 0.00 80 1019.4
20260509151553 60 17 16.0 29.0 0.00 0.00 0.00 79 1019.5
20260509150729 60 30 18.0 30.0 0.00 0.00 0.00 79 1019.4
20260509150228 59 10 20.0 30.0 0.00 0.00 0.00 78 1019.4
20260509145724 59 1 15.0 31.0 0.00 0.00 0.00 81 1019.4
20260509145225 59 18 23.0 31.0 0.00 0.00 0.00 80 1019.3
20260509144724 59 30 16.0 31.0 0.00 0.00 0.00 80 1019.1
20260509144222 59 7 22.0 31.0 0.00 0.00 0.00 77 1019.3
20260509143719 61 30 14.0 33.0 0.00 0.00 0.00 75 1019.2
20260509143214 60 3 19.0 33.0 0.00 0.00 0.00 74 1019.2
20260509142715 61 30 15.0 26.0 0.00 0.00 0.00 74 1019.1
20260509142211 61 30 18.0 32.0 0.00 0.00 0.00 74 1019.0
20260509141712 61 8 16.0 32.0 0.00 0.00 0.00 74 1019.2
20260509141210 61 346 17.0 26.0 0.00 0.00 0.00 74 1019.1
20260509140828 60 6 13.0 27.0 0.00 0.00 0.00 76 1019.3
20260509135712 60 353 21.0 31.0 0.00 0.00 0.00 77 1019.4
20260509135207 59 356 15.0 27.0 0.00 0.00 0.00 80 1019.4
20260509134706 58 30 17.0 28.0 0.00 0.01 0.00 81 1019.5
20260509134206 57 350 13.0 28.0 0.00 0.01 0.00 79 1019.7
20260509133705 59 4 15.0 30.0 0.00 0.01 0.00 76 1019.9
20260509133206 59 10 19.0 30.0 0.00 0.01 0.00 75 1019.9
20260509132704 60 30 17.0 28.0 0.00 0.01 0.00 71 1019.8
20260509132522 60 353 17.0 28.0 0.00 0.01 0.00 70 1019.8
20260509131707 60 325 13.0 29.0 0.00 0.01 0.00 69 1019.8
20260509131206 61 4 15.0 29.0 0.00 0.01 0.00 69 1019.7
20260509130719 60 30 13.0 31.0 0.00 0.01 0.00 71 1019.8
20260509130216 60 30 23.0 31.0 0.00 0.01 0.00 70 1019.8
20260509130032 60 354 20.0 29.0 0.00 0.01 0.00 71 1019.6
20260509125204 59 350 17.0 29.0 0.00 0.01 0.00 71 1019.7
20260509124703 60 8 19.0 29.0 0.00 0.01 0.00 69 1019.8
20260509124204 60 6 17.0 32.0 0.00 0.01 0.00 69 1019.8
20260509123704 60 13 19.0 32.0 0.00 0.01 0.00 68 1019.9
20260509123203 60 27 13.0 30.0 0.00 0.01 0.00 71 1020.0
20260509122703 59 3 19.0 30.0 0.00 0.01 0.00 69 1019.9
20260509122203 59 353 19.0 29.0 0.00 0.01 0.00 67 1019.9
20260509121708 60 21 15.0 31.0 0.00 0.01 0.00 68 1020.1
20260509120158 59 8 17.0 26.0 0.00 0.01 0.00 68 1020.2
20260509115656 59 18 16.0 27.0 0.00 0.01 0.00 66 1020.2
20260509115151 58 30 17.0 27.0 0.00 0.01 0.00 65 1020.1
20260509115015 59 30 15.0 24.0 0.00 0.01 0.00 63 1020.1
20260509114148 58 11 17.0 30.0 0.00 0.01 0.00 64 1020.2
20260509114002 58 41 17.0 30.0 0.00 0.01 0.00 65 1020.1
20260509113141 59 30 14.0 22.0 0.00 0.01 0.00 66 1020.2
20260509112638 59 333 14.0 26.0 0.00 0.01 0.00 64 1020.1
20260509112137 59 11 12.0 33.0 0.00 0.01 0.00 67 1020.1
20260509111635 59 30 21.0 33.0 0.00 0.01 0.00 66 1020.2
20260509111135 59 7 23.0 33.0 0.00 0.01 0.00 63 1020.1
20260509110633 58 1 17.0 29.0 0.00 0.01 0.00 65 1019.9
20260509110133 58 30 23.0 29.0 0.00 0.01 0.00 65 1020.1